Location: Zapote
(9.9191°N, 84.0597°W)
Time: 06:40:47
(UTC-06:00)

S-56A Canister/Altair - Visible Passes

Search period start: 07 March 2021 00:00
Search period end: 17 March 2021 00:00
Orbit: 631 x 2501 km, 38.9° (Epoch: 06 March)

Date Brightness Start Highest point End Pass type
(mag) Time Alt. Az. Time Alt. Az. Time Alt. Az.
07 Mar 10.2 17:51:53 10° NW 18:05:12 40° NNE 18:15:24 10° E visible
07 Mar 9.1 19:58:48 10° NW 20:11:57 75° SW 20:13:27 66° S visible
07 Mar 11.3 22:10:55 10° W 22:10:56 10° W 22:10:56 10° W visible
08 Mar 9.3 19:24:55 10° NW 19:38:47 86° SW 19:43:14 41° SE visible
08 Mar 10.9 21:35:43 10° W 21:40:44 18° WSW 21:40:44 18° WSW visible
09 Mar 9.4 18:51:06 10° NW 19:05:30 84° NE 19:13:06 22° SE visible
09 Mar 10.5 21:00:57 10° W 21:10:08 26° SW 21:10:35 26° SW visible
10 Mar 9.6 18:17:20 10° NW 18:32:06 76° NE 18:42:48 10° ESE visible
10 Mar 10.3 20:26:26 10° WNW 20:37:13 33° SW 20:40:28 27° SSW visible
11 Mar 9.8 17:43:39 10° NW 17:58:35 68° NE 18:09:55 10° ESE visible
11 Mar 10.3 19:52:05 10° WNW 20:04:12 40° SW 20:10:22 21° S visible
12 Mar 10.2 19:17:52 10° WNW 19:31:05 48° SW 19:40:16 12° SSE visible
13 Mar 10.2 18:43:47 10° WNW 18:57:52 56° SW 19:08:19 10° SSE visible
13 Mar 11.2 21:00:05 10° WSW 21:02:31 11° SW 21:04:49 10° SW visible
14 Mar 10.2 18:09:49 10° WNW 18:24:33 65° SW 18:35:46 10° SE visible
14 Mar 11.2 20:23:06 10° W 20:29:28 15° SW 20:34:56 10° SSW visible
15 Mar 11.1 19:47:36 10° W 19:56:21 20° SW 20:03:37 10° S visible
16 Mar 11.1 19:12:38 10° W 19:23:11 25° SW 19:31:49 10° S visible
